Regional Weather Roundup
Issued by NWS

Home | Current Version | Previous Version | Graphics & Text | Print | Product List | Glossary Off
Versions: 1 2 3 4 5 6 7 8 9 10 11 12 13 14 15 16 17 18 19 20 21 22 23 24 25 26 27 28 29 30 31 32 33 34 35 36 37 38 39 40 41 42 43 44 45 46 47 48 49 50

000
ASUS43 KMKX 291400
RWRWI

WISCONSIN REGIONAL WEATHER ROUNDUP
NATIONAL WEATHER SERVICE MILWAUKEE/SULLIVAN WI
900 AM CDT SUN MAY 29 2016

NOTE: "FAIR" INDICATES FEW OR NO CLOUDS BELOW 12,000 FEET WITH NO
SIGNIFICANT WEATHER AND/OR OBSTRUCTIONS TO VISIBILITY.

WIZ001-002-006>008-014>016-023>028-291500-
NORTHWEST WISCONSIN

CITY           SKY/WX    TMP DP  RH WIND       PRES   REMARKS
SUPERIOR ARPT  CLOUDY    61  61  99 W7        29.81S
ASHLAND        CLOUDY    61  58  90 SW6       29.82R
HAYWARD        CLOUDY    61  58  90 W6        29.86R
SIREN          CLOUDY    61  59  92 W7        29.87R FOG
CUMBERLAND     CLOUDY    59  57  94 W9        29.88R
RICE LAKE      CLOUDY    62  58  88 CALM      29.89R
CHETEK         CLOUDY    62  60  94 W5        29.88R
LADYSMITH      CLOUDY    63  60  88 W8        29.88S
EAU CLAIRE     CLOUDY    63  60  90 W6        29.88R
MENOMONIE      CLOUDY    63  63  99 SW7       29.89R
NEW RICHMOND   DRIZZLE   61  60  98 W9        29.90R
OSCEOLA        CLOUDY    62  62 100 W8        29.92R
$$

WIZ003>005-009-010-017-018-291500-
NORTH CENTRAL WISCONSIN

CITY           SKY/WX    TMP DP  RH WIND       PRES   REMARKS
MANITOWISH WTR NOT AVBL
ARBOR VITAE    CLOUDY    62  60  93 SW7       29.84S
WOODRUFF       CLOUDY    62  60  93 SW7       29.84S
RHINELANDER    CLOUDY    63  58  83 W7        29.86S
EAGLE RIVER      N/A     64  60  86 SW12      29.84S
LAND O LAKES   CLOUDY    63  59  87 SW6       29.84S
PHILLIPS       CLOUDY    60  59  97 W5        29.85S
TOMAHAWK       LGT RAIN  61  58  92 W3        29.86S
MEDFORD        CLOUDY    61  61 100 W9        29.87R
MERRILL        RAIN      62  62  97 W9        29.87R
$$

WIZ029-030-035-036-043>047-291500-
CENTRAL WISCONSIN

CITY           SKY/WX    TMP DP  RH WIND       PRES   REMARKS
WAUSAU         LGT RAIN  63  60  90 W13       29.85R
MOSINEE        LGT RAIN  63  63 100 W12       29.88R
MARSHFIELD     CLOUDY    63  60  90 W12       29.89R
STEVENS POINT  CLOUDY    64  59  86 SW9       29.88R
WAUPACA        CLOUDY    67  64  89 S8        29.89R
WAUTOMA        NOT AVBL
WISC RAPIDS    LGT RAIN  63  60  90 W13       29.90R
CAMP DOUGLAS   NOT AVBL
$$

WIZ011>013-019>022-031-037>040-048>050-291500-
NORTHEAST WISCONSIN

CITY           SKY/WX    TMP DP  RH WIND       PRES   REMARKS
ANTIGO         CLOUDY    63  61  93 SW12      29.86S
SHAWANO        MOSUNNY   71  62  74 S6        29.86F
OCONTO         PTSUNNY   70  67  93 SW8       29.86S
STURGEON BAY   NOT AVBL
GREEN BAY      PTSUNNY   69  62  78 S10       29.87F
MANITOWOC      NOT AVBL
APPLETON       CLOUDY    66  57  72 SW14      29.87S
CLINTONVILLE   MOSUNNY   68  59  73 SW13      29.86F
OSHKOSH        CLOUDY    66  60  81 SW15      29.89S
$$

WIZ032>034-041-042-053>061-291500-
SOUTHWEST WISCONSIN

CITY           SKY/WX    TMP DP  RH WIND       PRES   REMARKS
LA CROSSE      CLOUDY    67  59  75 W8        29.93R
SPARTA         CLOUDY    64  61  88 W9        29.92R
VIROQUA        CLOUDY    64  60  88 W14       29.95R
BOSCOBEL       PTSUNNY   69  62  78 SW8       29.96R
PRAIRIE DU CHI PTSUNNY   67  58  72 W9        29.96R
PLATTEVILLE    PTSUNNY   66  62  87 W14G20    29.98R
$$

WIZ056-057-062-063-064-067-068-291500-
SOUTH CENTRAL WISCONSIN

CITY           SKY/WX    TMP DP  RH WIND       PRES   REMARKS
REEDSBURG      CLOUDY    64  62  90 W10       29.92R
BARABOO/DELLS  CLOUDY    64  60  85 SW9       29.93R
LONE ROCK      NOT AVBL
MINERAL POINT  CLOUDY    68  63  83 W13       29.97R
MADISON        CLOUDY    67  60  78 VRB7G17   29.94R
MIDDLETON      CLOUDY    66  61  83 SW12      29.94R
WATERTOWN      CLOUDY    66  61  85 W12G17    29.94R
MONROE         CLOUDY    64  59  82 SW15      29.97R
JANESVILLE     CLOUDY    68  61  77 W12G17    29.97R
$$

WIZ051-052-058>065-066-070>072-291500-
SOUTHEAST WISCONSIN

CITY           SKY/WX    TMP DP  RH WIND       PRES   REMARKS
MILWAUKEE      MOSUNNY   71  61  70 SW16      29.95R
WAUKESHA       MOSUNNY   68  61  77 SW8       29.95S
MILWAUKEE/TIMM MOSUNNY   70  59  68 S12G17    29.94S
RACINE         SUNNY     72  61  68 SW12G23   29.96S
BURLINGTON     SUNNY     68  62  79 SW16G22   29.96R
KENOSHA        SUNNY     72  62  71 SW15      29.96S
FOND DU LAC    PTSUNNY   67  61  81 SW15G23   29.91R
SHEBOYGAN      PTSUNNY   71  63  75 SW15      29.91R
WEST BEND      MOSUNNY   68  59  73 SW16G22   29.92R
JUNEAU         CLOUDY    65  60  82 S17       29.94R
$$

LSZ147-162-291500-
LAKE SUPERIOR

STATION/POSITION TIME  TEMP    WIND        PRES    WAVE
                       AIR SEA DIR/SP/G            HT/PER
                 (UTC) (F)     (DEG/KT/KT) (MB)    (FT/S)
W MID LAKE BUOY  1250   40 38  220/  6/  6 1009.0R   0
DEVILS ISLAND    1300   47     250/  9/ 10 1009.3R
SAXON HARBOR     1300   59     200/  4/  6 1008.8S
$$

LMZ867-665-643>646-291500-
LAKE MICHIGAN

STATION/POSITION TIME  TEMP    WIND        PRES    WAVE
                       AIR SEA DIR/SP/G            HT/PER
                 (UTC) (F)     (DEG/KT/KT) (MB)    (FT/S)
CHAMBERS ISLAND  1340   68     160/  6/ 11 1011.2S
N MID LAKE BUOY  1250   50 46  190/ 14/ 16 1011.9R   3/ 5
NORTHPORT PIER   1300   54     150/  7/ 10 1011.9S
SISTER BAY       1320   68     180/ 14/ 16   N/A
ALGOMA LAKESHORE 1302          210/ 11/ 13   N/A
KEWAUNEE LAKESHO 1300   51     170/ 10/ 11 1011.8R
SHEBOYGAN LAKESH 1300   56     180/ 16/ 16 1013.1S
PORT WASHINGTON  1300   55     180/  7/ 10 1013.9F
S MID LAKE BUOY  1250   54 50  170/ 10/ 12 1014.7R   1/ 3
KENOSHA   LAKESH 1300   70     210/  9/ 16 1014.2S
$$

TC  - TEMPERATURE IN CELSIUS
VSB - VISIBILITY IN STATUTE MILES
WCI - WIND CHILL INDEX
HX  - HEAT INDEX





USA.gov is the U.S. government's official web portal to all federal, state and local government web resources and services.